owner,sensor,date,latitude,longitude,air_pressure(mBar),qcFlag 
WAVCIS,ioos:station:WAVCIS:CSI06:1,2008-03-01T00:00:00Z,28.8667,-90.4833,1023.89,11111222 
WAVCIS,ioos:station:WAVCIS:CSI06:1,2008-03-01T01:00:00Z,28.8667,-90.4833,1023.61,11111222 
WAVCIS,ioos:station:WAVCIS:CSI06:1,2008-03-01T02:00:00Z,28.8667,-90.4833,1024.11,11111222 
WAVCIS,ioos:station:WAVCIS:CSI06:1,2008-03-01T03:00:00Z,28.8667,-90.4833,1024.95,11111222 
WAVCIS,ioos:station:WAVCIS:CSI06:1,2008-03-01T04:00:00Z,28.8667,-90.4833,1025.31,11111222 
WAVCIS,ioos:station:WAVCIS:CSI06:1,2008-03-01T05:00:00Z,28.8667,-90.4833,1025.18,11111222 
WAVCIS,ioos:station:WAVCIS:CSI06:1,2008-03-01T06:00:00Z,28.8667,-90.4833,1025.02,11111222 
WAVCIS,ioos:station:WAVCIS:CSI06:1,2008-03-01T07:00:00Z,28.8667,-90.4833,1024.88,11111222 
WAVCIS,ioos:station:WAVCIS:CSI06:1,2008-03-01T08:00:00Z,28.8667,-90.4833,1024.76,11111222 
WAVCIS,ioos:station:WAVCIS:CSI06:1,2008-03-01T09:00:00Z,28.8667,-90.4833,1024.4,11111222 
WAVCIS,ioos:station:WAVCIS:CSI06:1,2008-03-01T10:00:00Z,28.8667,-90.4833,1024.31,11111222 
WAVCIS,ioos:station:WAVCIS:CSI06:1,2008-03-01T11:00:00Z,28.8667,-90.4833,1024.25,11111222 
WAVCIS,ioos:station:WAVCIS:CSI06:1,2008-03-01T12:00:00Z,28.8667,-90.4833,1024.46,11111222 
WAVCIS,ioos:station:WAVCIS:CSI06:1,2008-03-01T13:00:00Z,28.8667,-90.4833,1024.6,11111222 
WAVCIS,ioos:station:WAVCIS:CSI06:1,2008-03-01T14:00:00Z,28.8667,-90.4833,1025.33,11111222 
WAVCIS,ioos:station:WAVCIS:CSI06:1,2008-03-01T15:00:00Z,28.8667,-90.4833,1026.02,11111222 
WAVCIS,ioos:station:WAVCIS:CSI06:1,2008-03-01T16:00:00Z,28.8667,-90.4833,1026.11,11111222 
WAVCIS,ioos:station:WAVCIS:CSI06:1,2008-03-01T17:00:00Z,28.8667,-90.4833,1026.01,11111222 
WAVCIS,ioos:station:WAVCIS:CSI06:1,2008-03-01T18:00:00Z,28.8667,-90.4833,1025.33,11111222 
WAVCIS,ioos:station:WAVCIS:CSI06:1,2008-03-01T19:00:00Z,28.8667,-90.4833,1024.28,11111222 
WAVCIS,ioos:station:WAVCIS:CSI06:1,2008-03-01T20:00:00Z,28.8667,-90.4833,1023.33,11111222 
WAVCIS,ioos:station:WAVCIS:CSI06:1,2008-03-01T21:00:00Z,28.8667,-90.4833,1022.91,11111222 
WAVCIS,ioos:station:WAVCIS:CSI06:1,2008-03-01T22:00:00Z,28.8667,-90.4833,1022.51,11111222 
WAVCIS,ioos:station:WAVCIS:CSI06:1,2008-03-01T23:00:00Z,28.8667,-90.4833,1022.31,11111222 
WAVCIS,ioos:station:WAVCIS:CSI06:1,2008-03-02T00:00:00Z,28.8667,-90.4833,1022.0,11111222 
WAVCIS,ioos:station:WAVCIS:CSI06:1,2008-03-02T01:00:00Z,28.8667,-90.4833,1021.76,11111222 
WAVCIS,ioos:station:WAVCIS:CSI06:1,2008-03-02T02:00:00Z,28.8667,-90.4833,1022.04,11111222 
WAVCIS,ioos:station:WAVCIS:CSI06:1,2008-03-02T03:00:00Z,28.8667,-90.4833,1021.98,11111222 
WAVCIS,ioos:station:WAVCIS:CSI06:1,2008-03-02T04:00:00Z,28.8667,-90.4833,1021.92,11111222 
WAVCIS,ioos:station:WAVCIS:CSI06:1,2008-03-02T05:00:00Z,28.8667,-90.4833,1021.44,11111222 
WAVCIS,ioos:station:WAVCIS:CSI06:1,2008-03-02T06:00:00Z,28.8667,-90.4833,1020.73,11111222 
WAVCIS,ioos:station:WAVCIS:CSI06:1,2008-03-02T07:00:00Z,28.8667,-90.4833,1020.19,11111222 
WAVCIS,ioos:station:WAVCIS:CSI06:1,2008-03-02T08:00:00Z,28.8667,-90.4833,1019.57,11111222 
WAVCIS,ioos:station:WAVCIS:CSI06:1,2008-03-02T09:00:00Z,28.8667,-90.4833,1019.08,11111222 
WAVCIS,ioos:station:WAVCIS:CSI06:1,2008-03-02T11:00:00Z,28.8667,-90.4833,1018.65,11111222 
WAVCIS,ioos:station:WAVCIS:CSI06:1,2008-03-02T12:00:00Z,28.8667,-90.4833,1018.87,11111222 
WAVCIS,ioos:station:WAVCIS:CSI06:1,2008-03-02T13:00:00Z,28.8667,-90.4833,1019.34,11111222 
WAVCIS,ioos:station:WAVCIS:CSI06:1,2008-03-02T14:00:00Z,28.8667,-90.4833,1019.67,11111222 
WAVCIS,ioos:station:WAVCIS:CSI06:1,2008-03-02T15:00:00Z,28.8667,-90.4833,1019.91,11111222 
WAVCIS,ioos:station:WAVCIS:CSI06:1,2008-03-02T16:00:00Z,28.8667,-90.4833,1020.03,11111222 
WAVCIS,ioos:station:WAVCIS:CSI06:1,2008-03-02T17:00:00Z,28.8667,-90.4833,1019.91,11111222 
WAVCIS,ioos:station:WAVCIS:CSI06:1,2008-03-02T18:00:00Z,28.8667,-90.4833,1019.13,11111222 
WAVCIS,ioos:station:WAVCIS:CSI06:1,2008-03-02T19:00:00Z,28.8667,-90.4833,1018.35,11111222 
WAVCIS,ioos:station:WAVCIS:CSI06:1,2008-03-02T20:00:00Z,28.8667,-90.4833,1017.2,11111222 
WAVCIS,ioos:station:WAVCIS:CSI06:1,2008-03-02T21:00:00Z,28.8667,-90.4833,1016.57,11111222 
WAVCIS,ioos:station:WAVCIS:CSI06:1,2008-03-02T22:00:00Z,28.8667,-90.4833,1016.33,11111222 
WAVCIS,ioos:station:WAVCIS:CSI06:1,2008-03-02T23:00:00Z,28.8667,-90.4833,1016.01,11111222 
WAVCIS,ioos:station:WAVCIS:CSI06:1,2008-03-03T00:00:00Z,28.8667,-90.4833,1015.55,11111222 
WAVCIS,ioos:station:WAVCIS:CSI06:1,2008-03-03T01:00:00Z,28.8667,-90.4833,1015.18,11111222 
WAVCIS,ioos:station:WAVCIS:CSI06:1,2008-03-03T02:00:00Z,28.8667,-90.4833,1015.01,11111222 
WAVCIS,ioos:station:WAVCIS:CSI06:1,2008-03-03T03:00:00Z,28.8667,-90.4833,1014.91,11111222 
WAVCIS,ioos:station:WAVCIS:CSI06:1,2008-03-03T04:00:00Z,28.8667,-90.4833,1015.03,11111222 
WAVCIS,ioos:station:WAVCIS:CSI06:1,2008-03-03T05:00:00Z,28.8667,-90.4833,1014.53,11111222 
WAVCIS,ioos:station:WAVCIS:CSI06:1,2008-03-03T06:00:00Z,28.8667,-90.4833,1014.12,11111222 
WAVCIS,ioos:station:WAVCIS:CSI06:1,2008-03-03T07:00:00Z,28.8667,-90.4833,1013.42,11111222 
WAVCIS,ioos:station:WAVCIS:CSI06:1,2008-03-03T08:00:00Z,28.8667,-90.4833,1012.82,11111222 
WAVCIS,ioos:station:WAVCIS:CSI06:1,2008-03-03T09:00:00Z,28.8667,-90.4833,1011.98,11111222 
WAVCIS,ioos:station:WAVCIS:CSI06:1,2008-03-03T10:00:00Z,28.8667,-90.4833,1011.49,11111222 
WAVCIS,ioos:station:WAVCIS:CSI06:1,2008-03-03T11:00:00Z,28.8667,-90.4833,1011.21,11111222 
WAVCIS,ioos:station:WAVCIS:CSI06:1,2008-03-03T12:00:00Z,28.8667,-90.4833,1010.45,11111222 
WAVCIS,ioos:station:WAVCIS:CSI06:1,2008-03-03T13:00:00Z,28.8667,-90.4833,1010.69,11111222 
WAVCIS,ioos:station:WAVCIS:CSI06:1,2008-03-03T14:00:00Z,28.8667,-90.4833,1011.24,11111222 
WAVCIS,ioos:station:WAVCIS:CSI06:1,2008-03-03T15:00:00Z,28.8667,-90.4833,1011.76,11111222 
WAVCIS,ioos:station:WAVCIS:CSI06:1,2008-03-03T16:00:00Z,28.8667,-90.4833,1011.69,11111222 
WAVCIS,ioos:station:WAVCIS:CSI06:1,2008-03-03T17:00:00Z,28.8667,-90.4833,1011.85,11111222 
WAVCIS,ioos:station:WAVCIS:CSI06:1,2008-03-03T18:00:00Z,28.8667,-90.4833,1011.37,11111222 
WAVCIS,ioos:station:WAVCIS:CSI06:1,2008-03-03T19:00:00Z,28.8667,-90.4833,1010.54,11111222 
WAVCIS,ioos:station:WAVCIS:CSI06:1,2008-03-03T20:00:00Z,28.8667,-90.4833,1009.56,11111222 
WAVCIS,ioos:station:WAVCIS:CSI06:1,2008-03-03T21:00:00Z,28.8667,-90.4833,1008.46,11111222 
WAVCIS,ioos:station:WAVCIS:CSI06:1,2008-03-03T22:00:00Z,28.8667,-90.4833,1008.07,11111222 
WAVCIS,ioos:station:WAVCIS:CSI06:1,2008-03-03T23:00:00Z,28.8667,-90.4833,1008.24,11111222 
WAVCIS,ioos:station:WAVCIS:CSI06:1,2008-03-04T00:00:00Z,28.8667,-90.4833,1007.95,11111222 
WAVCIS,ioos:station:WAVCIS:CSI06:1,2008-03-04T01:00:00Z,28.8667,-90.4833,1007.91,11111222 
WAVCIS,ioos:station:WAVCIS:CSI06:1,2008-03-04T02:00:00Z,28.8667,-90.4833,1007.58,11111222 
WAVCIS,ioos:station:WAVCIS:CSI06:1,2008-03-04T03:00:00Z,28.8667,-90.4833,1007.66,11111222 
WAVCIS,ioos:station:WAVCIS:CSI06:1,2008-03-04T04:00:00Z,28.8667,-90.4833,1007.39,11111222 
WAVCIS,ioos:station:WAVCIS:CSI06:1,2008-03-04T06:00:00Z,28.8667,-90.4833,1007.73,11111222 
WAVCIS,ioos:station:WAVCIS:CSI06:1,2008-03-04T07:00:00Z,28.8667,-90.4833,1008.79,11111222 
WAVCIS,ioos:station:WAVCIS:CSI06:1,2008-03-04T08:00:00Z,28.8667,-90.4833,1009.49,11111222 
WAVCIS,ioos:station:WAVCIS:CSI06:1,2008-03-04T09:00:00Z,28.8667,-90.4833,1010.23,11111222 
WAVCIS,ioos:station:WAVCIS:CSI06:1,2008-03-04T10:00:00Z,28.8667,-90.4833,1010.76,11111222 
WAVCIS,ioos:station:WAVCIS:CSI06:1,2008-03-04T11:00:00Z,28.8667,-90.4833,1011.17,11111222 
WAVCIS,ioos:station:WAVCIS:CSI06:1,2008-03-04T12:00:00Z,28.8667,-90.4833,1011.88,11111222 
WAVCIS,ioos:station:WAVCIS:CSI06:1,2008-03-04T13:00:00Z,28.8667,-90.4833,1012.91,11111222 
WAVCIS,ioos:station:WAVCIS:CSI06:1,2008-03-04T14:00:00Z,28.8667,-90.4833,1013.64,11111222 
WAVCIS,ioos:station:WAVCIS:CSI06:1,2008-03-04T15:00:00Z,28.8667,-90.4833,1014.39,11111222 
WAVCIS,ioos:station:WAVCIS:CSI06:1,2008-03-04T16:00:00Z,28.8667,-90.4833,1014.95,11111222 
WAVCIS,ioos:station:WAVCIS:CSI06:1,2008-03-04T17:00:00Z,28.8667,-90.4833,1015.05,11111222 
WAVCIS,ioos:station:WAVCIS:CSI06:1,2008-03-04T18:00:00Z,28.8667,-90.4833,1014.83,11111222 
WAVCIS,ioos:station:WAVCIS:CSI06:1,2008-03-04T20:00:00Z,28.8667,-90.4833,1013.94,11111222 
WAVCIS,ioos:station:WAVCIS:CSI06:1,2008-03-04T21:00:00Z,28.8667,-90.4833,1013.44,11111222 
WAVCIS,ioos:station:WAVCIS:CSI06:1,2008-03-04T22:00:00Z,28.8667,-90.4833,1013.29,11111222 
WAVCIS,ioos:station:WAVCIS:CSI06:1,2008-03-04T23:00:00Z,28.8667,-90.4833,1013.59,11111222 
WAVCIS,ioos:station:WAVCIS:CSI06:1,2008-03-05T00:00:00Z,28.8667,-90.4833,1014.02,11111222 
WAVCIS,ioos:station:WAVCIS:CSI06:1,2008-03-05T01:00:00Z,28.8667,-90.4833,1014.38,11111222 
WAVCIS,ioos:station:WAVCIS:CSI06:1,2008-03-05T02:00:00Z,28.8667,-90.4833,1015.14,11111222 
WAVCIS,ioos:station:WAVCIS:CSI06:1,2008-03-05T03:00:00Z,28.8667,-90.4833,1015.53,11111222 
WAVCIS,ioos:station:WAVCIS:CSI06:1,2008-03-05T04:00:00Z,28.8667,-90.4833,1015.92,11111222 
WAVCIS,ioos:station:WAVCIS:CSI06:1,2008-03-05T05:00:00Z,28.8667,-90.4833,1015.71,11111222 
WAVCIS,ioos:station:WAVCIS:CSI06:1,2008-03-05T06:00:00Z,28.8667,-90.4833,1015.79,11111222 
WAVCIS,ioos:station:WAVCIS:CSI06:1,2008-03-05T07:00:00Z,28.8667,-90.4833,1015.66,11111222 
WAVCIS,ioos:station:WAVCIS:CSI06:1,2008-03-05T08:00:00Z,28.8667,-90.4833,1015.49,11111222 
WAVCIS,ioos:station:WAVCIS:CSI06:1,2008-03-05T09:00:00Z,28.8667,-90.4833,1015.11,11111222 
WAVCIS,ioos:station:WAVCIS:CSI06:1,2008-03-05T10:00:00Z,28.8667,-90.4833,1015.25,11111222 
WAVCIS,ioos:station:WAVCIS:CSI06:1,2008-03-05T11:00:00Z,28.8667,-90.4833,1015.9,11111222 
WAVCIS,ioos:station:WAVCIS:CSI06:1,2008-03-05T12:00:00Z,28.8667,-90.4833,1016.48,11111222 
WAVCIS,ioos:station:WAVCIS:CSI06:1,2008-03-05T13:00:00Z,28.8667,-90.4833,1017.63,11111222 
WAVCIS,ioos:station:WAVCIS:CSI06:1,2008-03-05T14:00:00Z,28.8667,-90.4833,1018.51,11111222 
WAVCIS,ioos:station:WAVCIS:CSI06:1,2008-03-05T15:00:00Z,28.8667,-90.4833,1019.04,11111222 
WAVCIS,ioos:station:WAVCIS:CSI06:1,2008-03-05T16:00:00Z,28.8667,-90.4833,1018.82,11111222 
WAVCIS,ioos:station:WAVCIS:CSI06:1,2008-03-05T17:00:00Z,28.8667,-90.4833,1018.64,11111222 
WAVCIS,ioos:station:WAVCIS:CSI06:1,2008-03-05T18:00:00Z,28.8667,-90.4833,1018.2,11111222 
WAVCIS,ioos:station:WAVCIS:CSI06:1,2008-03-05T19:00:00Z,28.8667,-90.4833,1017.46,11111222 
WAVCIS,ioos:station:WAVCIS:CSI06:1,2008-03-05T20:00:00Z,28.8667,-90.4833,1016.28,11111222 
WAVCIS,ioos:station:WAVCIS:CSI06:1,2008-03-05T21:00:00Z,28.8667,-90.4833,1015.92,11111222 
WAVCIS,ioos:station:WAVCIS:CSI06:1,2008-03-05T22:00:00Z,28.8667,-90.4833,1015.72,11111222 
WAVCIS,ioos:station:WAVCIS:CSI06:1,2008-03-05T23:00:00Z,28.8667,-90.4833,1015.64,11111222 
WAVCIS,ioos:station:WAVCIS:CSI06:1,2008-03-06T00:00:00Z,28.8667,-90.4833,1015.7,11111222 
WAVCIS,ioos:station:WAVCIS:CSI06:1,2008-03-06T01:00:00Z,28.8667,-90.4833,1016.12,11111222 
WAVCIS,ioos:station:WAVCIS:CSI06:1,2008-03-06T02:00:00Z,28.8667,-90.4833,1016.23,11111222 
WAVCIS,ioos:station:WAVCIS:CSI06:1,2008-03-06T03:00:00Z,28.8667,-90.4833,1015.99,11111222 
WAVCIS,ioos:station:WAVCIS:CSI06:1,2008-03-06T04:00:00Z,28.8667,-90.4833,1016.05,11111222 
WAVCIS,ioos:station:WAVCIS:CSI06:1,2008-03-06T05:00:00Z,28.8667,-90.4833,1016.08,11111222 
WAVCIS,ioos:station:WAVCIS:CSI06:1,2008-03-06T06:00:00Z,28.8667,-90.4833,1015.96,11111222 
WAVCIS,ioos:station:WAVCIS:CSI06:1,2008-03-06T07:00:00Z,28.8667,-90.4833,1015.53,11111222 
WAVCIS,ioos:station:WAVCIS:CSI06:1,2008-03-06T08:00:00Z,28.8667,-90.4833,1014.82,11111222 
WAVCIS,ioos:station:WAVCIS:CSI06:1,2008-03-06T09:00:00Z,28.8667,-90.4833,1014.33,11111222 
WAVCIS,ioos:station:WAVCIS:CSI06:1,2008-03-06T12:00:00Z,28.8667,-90.4833,1014.67,11111222 
WAVCIS,ioos:station:WAVCIS:CSI06:1,2008-03-06T13:00:00Z,28.8667,-90.4833,1014.73,11111222 
WAVCIS,ioos:station:WAVCIS:CSI06:1,2008-03-06T14:00:00Z,28.8667,-90.4833,1014.73,11111222 
WAVCIS,ioos:station:WAVCIS:CSI06:1,2008-03-06T15:00:00Z,28.8667,-90.4833,1015.04,11111222 
WAVCIS,ioos:station:WAVCIS:CSI06:1,2008-03-06T16:00:00Z,28.8667,-90.4833,1015.59,11111222 
WAVCIS,ioos:station:WAVCIS:CSI06:1,2008-03-06T17:00:00Z,28.8667,-90.4833,1015.01,11111222 
WAVCIS,ioos:station:WAVCIS:CSI06:1,2008-03-06T18:00:00Z,28.8667,-90.4833,1013.81,11111222 
WAVCIS,ioos:station:WAVCIS:CSI06:1,2008-03-06T19:00:00Z,28.8667,-90.4833,1012.74,11111222 
WAVCIS,ioos:station:WAVCIS:CSI06:1,2008-03-06T20:00:00Z,28.8667,-90.4833,1011.44,11111222 
WAVCIS,ioos:station:WAVCIS:CSI06:1,2008-03-06T21:00:00Z,28.8667,-90.4833,1010.47,11111222 
WAVCIS,ioos:station:WAVCIS:CSI06:1,2008-03-06T22:00:00Z,28.8667,-90.4833,1009.42,11111222 
WAVCIS,ioos:station:WAVCIS:CSI06:1,2008-03-06T23:00:00Z,28.8667,-90.4833,1008.33,11111222 
WAVCIS,ioos:station:WAVCIS:CSI06:1,2008-03-07T00:00:00Z,28.8667,-90.4833,1007.98,11111222 
WAVCIS,ioos:station:WAVCIS:CSI06:1,2008-03-07T12:00:00Z,28.8667,-90.4833,1005.548,11111222 
WAVCIS,ioos:station:WAVCIS:CSI06:1,2008-03-07T13:00:00Z,28.8667,-90.4833,1008.07,11111222 
WAVCIS,ioos:station:WAVCIS:CSI06:1,2008-03-07T14:00:00Z,28.8667,-90.4833,1007.32,11111222 
WAVCIS,ioos:station:WAVCIS:CSI06:1,2008-03-07T15:00:00Z,28.8667,-90.4833,1007.33,11111222 
WAVCIS,ioos:station:WAVCIS:CSI06:1,2008-03-07T17:00:00Z,28.8667,-90.4833,1009.07,11111222 
WAVCIS,ioos:station:WAVCIS:CSI06:1,2008-03-07T18:00:00Z,28.8667,-90.4833,1010.21,11111222 
WAVCIS,ioos:station:WAVCIS:CSI06:1,2008-03-07T19:00:00Z,28.8667,-90.4833,1009.95,11111222 
WAVCIS,ioos:station:WAVCIS:CSI06:1,2008-03-07T20:00:00Z,28.8667,-90.4833,1009.68,11111222 
WAVCIS,ioos:station:WAVCIS:CSI06:1,2008-03-07T21:00:00Z,28.8667,-90.4833,1009.56,11111222 
WAVCIS,ioos:station:WAVCIS:CSI06:1,2008-03-07T22:00:00Z,28.8667,-90.4833,1010.19,11111222 
WAVCIS,ioos:station:WAVCIS:CSI06:1,2008-03-07T23:00:00Z,28.8667,-90.4833,1011.28,11111222 
WAVCIS,ioos:station:WAVCIS:CSI06:1,2008-03-08T00:00:00Z,28.8667,-90.4833,1012.72,11111222 
WAVCIS,ioos:station:WAVCIS:CSI06:1,2008-03-08T01:00:00Z,28.8667,-90.4833,1013.64,11111222 
WAVCIS,ioos:station:WAVCIS:CSI06:1,2008-03-08T02:00:00Z,28.8667,-90.4833,1015.32,11111222 
WAVCIS,ioos:station:WAVCIS:CSI06:1,2008-03-08T03:00:00Z,28.8667,-90.4833,1016.76,11111222 
WAVCIS,ioos:station:WAVCIS:CSI06:1,2008-03-08T04:00:00Z,28.8667,-90.4833,1018.2,11111222 
WAVCIS,ioos:station:WAVCIS:CSI06:1,2008-03-08T05:00:00Z,28.8667,-90.4833,1018.96,11111222 
WAVCIS,ioos:station:WAVCIS:CSI06:1,2008-03-08T06:00:00Z,28.8667,-90.4833,1019.98,11111222 
WAVCIS,ioos:station:WAVCIS:CSI06:1,2008-03-08T07:00:00Z,28.8667,-90.4833,1020.73,11111222 
WAVCIS,ioos:station:WAVCIS:CSI06:1,2008-03-08T08:00:00Z,28.8667,-90.4833,1020.54,11111222 
WAVCIS,ioos:station:WAVCIS:CSI06:1,2008-03-08T09:00:00Z,28.8667,-90.4833,1020.33,11111222 
WAVCIS,ioos:station:WAVCIS:CSI06:1,2008-03-08T10:00:00Z,28.8667,-90.4833,1020.5,11111222 
WAVCIS,ioos:station:WAVCIS:CSI06:1,2008-03-08T11:00:00Z,28.8667,-90.4833,1021.08,11111222 
WAVCIS,ioos:station:WAVCIS:CSI06:1,2008-03-08T12:00:00Z,28.8667,-90.4833,1022.34,11111222 
WAVCIS,ioos:station:WAVCIS:CSI06:1,2008-03-08T13:00:00Z,28.8667,-90.4833,1023.17,11111222 
WAVCIS,ioos:station:WAVCIS:CSI06:1,2008-03-08T14:00:00Z,28.8667,-90.4833,1023.57,11111222 
WAVCIS,ioos:station:WAVCIS:CSI06:1,2008-03-08T15:00:00Z,28.8667,-90.4833,1024.32,11111222 
WAVCIS,ioos:station:WAVCIS:CSI06:1,2008-03-08T16:00:00Z,28.8667,-90.4833,1024.47,11111222 
WAVCIS,ioos:station:WAVCIS:CSI06:1,2008-03-08T18:00:00Z,28.8667,-90.4833,1024.03,11111222 
WAVCIS,ioos:station:WAVCIS:CSI06:1,2008-03-08T19:00:00Z,28.8667,-90.4833,1023.4,11111222 
WAVCIS,ioos:station:WAVCIS:CSI06:1,2008-03-08T20:00:00Z,28.8667,-90.4833,1022.94,11111222 
WAVCIS,ioos:station:WAVCIS:CSI06:1,2008-03-08T21:00:00Z,28.8667,-90.4833,1022.15,11111222 
WAVCIS,ioos:station:WAVCIS:CSI06:1,2008-03-08T22:00:00Z,28.8667,-90.4833,1022.09,11111222 
WAVCIS,ioos:station:WAVCIS:CSI06:1,2008-03-08T23:00:00Z,28.8667,-90.4833,1021.85,11111222 
WAVCIS,ioos:station:WAVCIS:CSI06:1,2008-03-09T00:00:00Z,28.8667,-90.4833,1021.97,11111222 
WAVCIS,ioos:station:WAVCIS:CSI06:1,2008-03-09T01:00:00Z,28.8667,-90.4833,1022.0,11111222 
WAVCIS,ioos:station:WAVCIS:CSI06:1,2008-03-09T02:00:00Z,28.8667,-90.4833,1022.67,11111222 
WAVCIS,ioos:station:WAVCIS:CSI06:1,2008-03-09T03:00:00Z,28.8667,-90.4833,1023.18,11111222 
WAVCIS,ioos:station:WAVCIS:CSI06:1,2008-03-09T04:00:00Z,28.8667,-90.4833,1023.35,11111222 
WAVCIS,ioos:station:WAVCIS:CSI06:1,2008-03-09T05:00:00Z,28.8667,-90.4833,1023.49,11111222 
WAVCIS,ioos:station:WAVCIS:CSI06:1,2008-03-09T06:00:00Z,28.8667,-90.4833,1023.2,11111222 
WAVCIS,ioos:station:WAVCIS:CSI06:1,2008-03-09T07:00:00Z,28.8667,-90.4833,1023.21,11111222 
WAVCIS,ioos:station:WAVCIS:CSI06:1,2008-03-09T08:00:00Z,28.8667,-90.4833,1022.66,11111222 
WAVCIS,ioos:station:WAVCIS:CSI06:1,2008-03-09T09:00:00Z,28.8667,-90.4833,1022.31,11111222 
WAVCIS,ioos:station:WAVCIS:CSI06:1,2008-03-09T10:00:00Z,28.8667,-90.4833,1022.28,11111222 
WAVCIS,ioos:station:WAVCIS:CSI06:1,2008-03-09T11:00:00Z,28.8667,-90.4833,1022.86,11111222 
WAVCIS,ioos:station:WAVCIS:CSI06:1,2008-03-09T12:00:00Z,28.8667,-90.4833,1023.29,11111222 
WAVCIS,ioos:station:WAVCIS:CSI06:1,2008-03-09T13:00:00Z,28.8667,-90.4833,1023.82,11111222 
WAVCIS,ioos:station:WAVCIS:CSI06:1,2008-03-09T14:00:00Z,28.8667,-90.4833,1024.61,11111222 
WAVCIS,ioos:station:WAVCIS:CSI06:1,2008-03-09T15:00:00Z,28.8667,-90.4833,1025.31,11111222 
WAVCIS,ioos:station:WAVCIS:CSI06:1,2008-03-09T16:00:00Z,28.8667,-90.4833,1025.8,11111222 
WAVCIS,ioos:station:WAVCIS:CSI06:1,2008-03-09T17:00:00Z,28.8667,-90.4833,1025.92,11111222 
WAVCIS,ioos:station:WAVCIS:CSI06:1,2008-03-09T18:00:00Z,28.8667,-90.4833,1025.76,11111222 
WAVCIS,ioos:station:WAVCIS:CSI06:1,2008-03-09T19:00:00Z,28.8667,-90.4833,1024.92,11111222 
WAVCIS,ioos:station:WAVCIS:CSI06:1,2008-03-09T20:00:00Z,28.8667,-90.4833,1024.3,11111222 
WAVCIS,ioos:station:WAVCIS:CSI06:1,2008-03-09T21:00:00Z,28.8667,-90.4833,1023.91,11111222 
WAVCIS,ioos:station:WAVCIS:CSI06:1,2008-03-09T22:00:00Z,28.8667,-90.4833,1023.49,11111222 
WAVCIS,ioos:station:WAVCIS:CSI06:1,2008-03-09T23:00:00Z,28.8667,-90.4833,1023.33,11111222 
WAVCIS,ioos:station:WAVCIS:CSI06:1,2008-03-10T00:00:00Z,28.8667,-90.4833,1023.45,11111222 
WAVCIS,ioos:station:WAVCIS:CSI06:1,2008-03-10T01:00:00Z,28.8667,-90.4833,1023.55,11111222 
WAVCIS,ioos:station:WAVCIS:CSI06:1,2008-03-10T02:00:00Z,28.8667,-90.4833,1023.78,11111222 
WAVCIS,ioos:station:WAVCIS:CSI06:1,2008-03-10T03:00:00Z,28.8667,-90.4833,1024.05,11111222 
WAVCIS,ioos:station:WAVCIS:CSI06:1,2008-03-10T04:00:00Z,28.8667,-90.4833,1024.1,11111222 
WAVCIS,ioos:station:WAVCIS:CSI06:1,2008-03-10T05:00:00Z,28.8667,-90.4833,1023.39,11111222 
WAVCIS,ioos:station:WAVCIS:CSI06:1,2008-03-10T06:00:00Z,28.8667,-90.4833,1023.2,11111222 
WAVCIS,ioos:station:WAVCIS:CSI06:1,2008-03-10T07:00:00Z,28.8667,-90.4833,1022.89,11111222 
WAVCIS,ioos:station:WAVCIS:CSI06:1,2008-03-10T08:00:00Z,28.8667,-90.4833,1022.65,11111222 
WAVCIS,ioos:station:WAVCIS:CSI06:1,2008-03-10T09:00:00Z,28.8667,-90.4833,1022.51,11111222 
WAVCIS,ioos:station:WAVCIS:CSI06:1,2008-03-10T10:00:00Z,28.8667,-90.4833,1022.73,11111222 
WAVCIS,ioos:station:WAVCIS:CSI06:1,2008-03-10T11:00:00Z,28.8667,-90.4833,1023.06,11111222 
WAVCIS,ioos:station:WAVCIS:CSI06:1,2008-03-10T12:00:00Z,28.8667,-90.4833,1023.07,11111222 
WAVCIS,ioos:station:WAVCIS:CSI06:1,2008-03-10T13:00:00Z,28.8667,-90.4833,1023.56,11111222 
WAVCIS,ioos:station:WAVCIS:CSI06:1,2008-03-10T14:00:00Z,28.8667,-90.4833,1023.95,11111222 
WAVCIS,ioos:station:WAVCIS:CSI06:1,2008-03-10T15:00:00Z,28.8667,-90.4833,1024.44,11111222 
WAVCIS,ioos:station:WAVCIS:CSI06:1,2008-03-10T16:00:00Z,28.8667,-90.4833,1024.73,11111222 
WAVCIS,ioos:station:WAVCIS:CSI06:1,2008-03-10T17:00:00Z,28.8667,-90.4833,1024.93,11111222 
WAVCIS,ioos:station:WAVCIS:CSI06:1,2008-03-10T18:00:00Z,28.8667,-90.4833,1024.37,11111222 
WAVCIS,ioos:station:WAVCIS:CSI06:1,2008-03-10T19:00:00Z,28.8667,-90.4833,1023.24,11111222 
WAVCIS,ioos:station:WAVCIS:CSI06:1,2008-03-10T20:00:00Z,28.8667,-90.4833,1022.49,11111222 
WAVCIS,ioos:station:WAVCIS:CSI06:1,2008-03-10T21:00:00Z,28.8667,-90.4833,1021.72,11111222 
WAVCIS,ioos:station:WAVCIS:CSI06:1,2008-03-10T22:00:00Z,28.8667,-90.4833,1021.4,11111222 
WAVCIS,ioos:station:WAVCIS:CSI06:1,2008-03-10T23:00:00Z,28.8667,-90.4833,1021.44,11111222 
WAVCIS,ioos:station:WAVCIS:CSI06:1,2008-03-11T00:00:00Z,28.8667,-90.4833,1021.2,11111222 
WAVCIS,ioos:station:WAVCIS:CSI06:1,2008-03-11T01:00:00Z,28.8667,-90.4833,1021.13,11111222 
WAVCIS,ioos:station:WAVCIS:CSI06:1,2008-03-11T02:00:00Z,28.8667,-90.4833,1021.01,11111222 
WAVCIS,ioos:station:WAVCIS:CSI06:1,2008-03-11T03:00:00Z,28.8667,-90.4833,1020.61,11111222 
WAVCIS,ioos:station:WAVCIS:CSI06:1,2008-03-11T04:00:00Z,28.8667,-90.4833,1020.68,11111222 
WAVCIS,ioos:station:WAVCIS:CSI06:1,2008-03-11T05:00:00Z,28.8667,-90.4833,1020.1,11111222 
WAVCIS,ioos:station:WAVCIS:CSI06:1,2008-03-11T07:00:00Z,28.8667,-90.4833,1019.52,11111222 
WAVCIS,ioos:station:WAVCIS:CSI06:1,2008-03-11T08:00:00Z,28.8667,-90.4833,1018.81,11111222 
WAVCIS,ioos:station:WAVCIS:CSI06:1,2008-03-11T09:00:00Z,28.8667,-90.4833,1018.54,11111222 
WAVCIS,ioos:station:WAVCIS:CSI06:1,2008-03-11T10:00:00Z,28.8667,-90.4833,1018.03,11111222 
WAVCIS,ioos:station:WAVCIS:CSI06:1,2008-03-11T11:00:00Z,28.8667,-90.4833,1018.19,11111222 
WAVCIS,ioos:station:WAVCIS:CSI06:1,2008-03-11T12:00:00Z,28.8667,-90.4833,1018.18,11111222 
WAVCIS,ioos:station:WAVCIS:CSI06:1,2008-03-11T13:00:00Z,28.8667,-90.4833,1018.32,11111222 
WAVCIS,ioos:station:WAVCIS:CSI06:1,2008-03-11T14:00:00Z,28.8667,-90.4833,1018.77,11111222 
WAVCIS,ioos:station:WAVCIS:CSI06:1,2008-03-11T15:00:00Z,28.8667,-90.4833,1019.02,11111222 
WAVCIS,ioos:station:WAVCIS:CSI06:1,2008-03-11T16:00:00Z,28.8667,-90.4833,1019.58,11111222 
WAVCIS,ioos:station:WAVCIS:CSI06:1,2008-03-11T17:00:00Z,28.8667,-90.4833,1019.49,11111222 
WAVCIS,ioos:station:WAVCIS:CSI06:1,2008-03-11T18:00:00Z,28.8667,-90.4833,1019.13,11111222 
WAVCIS,ioos:station:WAVCIS:CSI06:1,2008-03-11T19:00:00Z,28.8667,-90.4833,1018.71,11111222 
WAVCIS,ioos:station:WAVCIS:CSI06:1,2008-03-11T20:00:00Z,28.8667,-90.4833,1017.75,11111222 
WAVCIS,ioos:station:WAVCIS:CSI06:1,2008-03-11T21:00:00Z,28.8667,-90.4833,1017.35,11111222 
WAVCIS,ioos:station:WAVCIS:CSI06:1,2008-03-11T22:00:00Z,28.8667,-90.4833,1017.19,11111222 
WAVCIS,ioos:station:WAVCIS:CSI06:1,2008-03-11T23:00:00Z,28.8667,-90.4833,1017.28,11111222 
WAVCIS,ioos:station:WAVCIS:CSI06:1,2008-03-12T00:00:00Z,28.8667,-90.4833,1017.2,11111222 
WAVCIS,ioos:station:WAVCIS:CSI06:1,2008-03-12T01:00:00Z,28.8667,-90.4833,1017.59,11111222 
WAVCIS,ioos:station:WAVCIS:CSI06:1,2008-03-12T02:00:00Z,28.8667,-90.4833,1017.89,11111222 
WAVCIS,ioos:station:WAVCIS:CSI06:1,2008-03-12T03:00:00Z,28.8667,-90.4833,1018.15,11111222 
WAVCIS,ioos:station:WAVCIS:CSI06:1,2008-03-12T04:00:00Z,28.8667,-90.4833,1018.35,11111222 
WAVCIS,ioos:station:WAVCIS:CSI06:1,2008-03-12T05:00:00Z,28.8667,-90.4833,1018.43,11111222 
WAVCIS,ioos:station:WAVCIS:CSI06:1,2008-03-12T06:00:00Z,28.8667,-90.4833,1018.53,11111222 
WAVCIS,ioos:station:WAVCIS:CSI06:1,2008-03-12T07:00:00Z,28.8667,-90.4833,1018.36,11111222 
WAVCIS,ioos:station:WAVCIS:CSI06:1,2008-03-12T08:00:00Z,28.8667,-90.4833,1017.81,11111222 
WAVCIS,ioos:station:WAVCIS:CSI06:1,2008-03-12T09:00:00Z,28.8667,-90.4833,1017.49,11111222 
WAVCIS,ioos:station:WAVCIS:CSI06:1,2008-03-12T10:00:00Z,28.8667,-90.4833,1017.28,11111222 
WAVCIS,ioos:station:WAVCIS:CSI06:1,2008-03-12T11:00:00Z,28.8667,-90.4833,1017.77,11111222 
WAVCIS,ioos:station:WAVCIS:CSI06:1,2008-03-12T12:00:00Z,28.8667,-90.4833,1018.35,11111222 
WAVCIS,ioos:station:WAVCIS:CSI06:1,2008-03-12T13:00:00Z,28.8667,-90.4833,1018.95,11111222 
WAVCIS,ioos:station:WAVCIS:CSI06:1,2008-03-12T14:00:00Z,28.8667,-90.4833,1019.47,11111222 
WAVCIS,ioos:station:WAVCIS:CSI06:1,2008-03-12T15:00:00Z,28.8667,-90.4833,1020.13,11111222 
WAVCIS,ioos:station:WAVCIS:CSI06:1,2008-03-12T16:00:00Z,28.8667,-90.4833,1020.38,11111222 
WAVCIS,ioos:station:WAVCIS:CSI06:1,2008-03-12T17:00:00Z,28.8667,-90.4833,1020.49,11111222 